[[{"header":{"parameterUnit":"m.s-1","parameterCategory":1,"la1":30.2991,"la2":30.254,"lo1":-89.0895,"lo2":-89.0444,"dy":0.0017,"dx":0.0017,"nx":28,"ny":28,"refTime":"2025-08-06T21:00:00:Z","depth":0,"parameterNumber":2,"parameterNumberName":"U-component_of_WINDS"},"data":[0,0,0,0,0,0,0,0,0,0,0,0,0,0,0,0,0,0,0,0,0,0,0,0,0,0,0,0,0,0,0,0,0,0,0,0,0,0,0,0,0,0,0,0,0,0,0,0,0,0,0,0,0,0,0,0,0,0,-0.7675,-0.7676,0,-0.772,-0.772,-0.7721,-0.7782,-0.7783,-0.7785,-0.7786,-0.783,-0.783,-0.783,0,0,0,0,0,0,0,0,0,0,0,0,0,-0.7643,-0.7644,-0.7675,-0.7676,-0.7676,-0.772,-0.772,-0.7721,-0.7782,-0.7784,-0.7785,-0.7786,-0.783,-0.783,-0.783,0,0,0,0,0,0,0,0,0,0,0,0,0,-0.7669,-0.7644,-0.7675,-0.7712,-0.7716,-0.772,-0.772,-0.7721,-0.7782,-0.7784,-0.7785,-0.7787,-0.783,-0.783,-0.783,-0.7801,0,0,-0.7831,-0.7831,0,0,0,0,0,0,0,0,-0.7668,-0.7671,-0.7706,-0.771,-0.7714,-0.7747,-0.7725,-0.7748,-0.7782,-0.7757,-0.7786,-0.7787,-0.7801,-0.7804,-0.7809,-0.7803,-0.7805,-0.7831,-0.7831,-0.7832,-0.7832,0,0,0,0,0,0,0,-0.7666,-0.7669,-0.7693,-0.7707,-0.7711,-0.7727,-0.7732,-0.773,-0.777,-0.7759,-0.7764,-0.7768,-0.7803,-0.7808,-0.781,-0.7805,-0.7831,-0.7832,-0.7832,-0.7832,-0.7777,-0.7776,0,0,0,0,0,0,-0.7659,-0.7667,-0.7692,-0.7694,-0.7694,-0.7726,-0.7732,-0.7735,-0.777,-0.7777,-0.7767,-0.7771,-0.7807,-0.781,-0.7812,-0.7778,-0.7832,-0.7832,-0.7832,-0.7779,-0.7777,-0.7775,0,0,0,0,0,0,-0.7658,-0.766,-0.769,-0.7682,-0.7687,-0.7725,-0.7728,-0.7735,-0.774,-0.7776,-0.7783,-0.7764,-0.7808,-0.7811,-0.7803,-0.7781,-0.7832,-0.7832,-0.7781,-0.7778,-0.7776,-0.7711,0,0,0,0,0,0,-0.7657,-0.766,-0.7649,-0.7681,-0.7687,-0.768,-0.7726,-0.7735,-0.774,-0.7746,-0.7775,-0.7781,-0.781,-0.7802,-0.7803,-0.7782,-0.7833,-0.7783,-0.778,-0.7777,-0.7715,-0.7707,-0.77,0,0,0,0,0,-0.7655,-0.7629,-0.7648,-0.765,-0.7674,-0.7678,-0.7682,-0.7715,-0.7738,-0.7727,-0.7751,-0.7781,-0.7784,-0.7801,-0.7803,-0.7781,-0.7784,-0.778,-0.7777,-0.7719,-0.7709,-0.77,0,0,0,0,0,0,-0.7592,-0.7634,-0.7655,-0.7638,-0.7654,-0.7689,-0.7676,-0.7703,-0.7712,-0.7717,-0.7758,-0.7764,-0.775,-0.7766,-0.7784,-0.7754,-0.7789,-0.7785,-0.7744,-0.7734,-0.7726,-0.7722,-0.7833,0,0,0,0,0,-0.7576,-0.7576,-0.7613,-0.7594,-0.7601,-0.7637,-0.764,-0.7665,-0.7683,-0.769,-0.7712,-0.7728,-0.7733,-0.7735,-0.7742,-0.7719,-0.7726,-0.7706,-0.7698,-0.7691,-0.7686,-0.7674,-0.7665,-0.7763,-0.7763,-0.7763,0,0,-0.7543,-0.7566,-0.7563,-0.7582,-0.7597,-0.7596,-0.7642,-0.7639,-0.7638,-0.7689,-0.7682,-0.7699,-0.772,-0.7704,-0.7699,-0.7717,-0.7661,-0.7686,-0.7681,-0.768,-0.767,-0.766,-0.7652,-0.776,-0.7761,-0.7761,0,0,-0.7481,-0.7499,-0.7485,-0.75,-0.7523,-0.7547,-0.7544,-0.7575,-0.7588,-0.7582,-0.762,-0.762,-0.7627,-0.764,-0.7648,-0.7593,-0.762,-0.7594,-0.7551,-0.7539,-0.7531,-0.7525,-0.7503,-0.7495,-0.759,-0.759,-0.759,0,-0.7437,-0.7436,-0.7475,-0.7469,-0.7476,-0.7523,-0.7509,-0.7521,-0.7545,-0.7548,-0.7569,-0.7579,-0.7597,-0.7584,-0.757,-0.7576,-0.7572,-0.7589,-0.7529,-0.7523,-0.7517,-0.7497,-0.7489,-0.7587,-0.7587,-0.7587,-0.7588,0,-0.738,-0.7379,-0.7365,-0.7387,-0.7393,-0.7382,-0.7419,-0.742,-0.7445,-0.7467,-0.746,-0.7483,-0.7495,-0.7494,-0.7518,-0.7485,-0.7495,-0.7522,-0.7557,-0.7504,-0.7485,-0.7478,-0.7581,-0.7583,-0.7584,-0.7585,0,0,-0.7276,-0.732,-0.7314,-0.7324,-0.7354,-0.7354,-0.7347,-0.7358,-0.7357,-0.7373,-0.7367,-0.7373,-0.7398,-0.7407,-0.7433,-0.7423,-0.7376,-0.7452,-0.7453,-0.7434,-0.7338,-0.7315,-0.7305,-0.7396,-0.7394,-0.7393,-0.7335,0,-0.7218,-0.7207,-0.7242,-0.7222,-0.7221,-0.7267,-0.726,-0.7277,-0.7298,-0.7301,-0.7325,-0.7327,-0.7362,-0.7367,-0.7359,-0.7383,-0.7356,-0.7388,-0.7388,-0.7388,-0.7378,-0.7296,-0.7272,-0.7215,-0.7329,-0.7327,-0.7327,0,-0.7148,-0.7159,-0.7139,-0.7169,-0.717,-0.7164,-0.7177,-0.7179,-0.72,-0.7216,-0.7226,-0.7257,-0.7252,-0.7288,-0.728,-0.7301,-0.7304,-0.7316,-0.7315,-0.7313,-0.7351,-0.7289,-0.7199,-0.7189,-0.7316,-0.7317,-0.7318,0,-0.7071,-0.7082,-0.7071,-0.7078,-0.7115,-0.7108,-0.7123,-0.7146,-0.715,-0.7163,-0.7166,-0.7178,-0.7183,-0.7191,-0.7224,-0.7248,-0.7212,-0.7252,-0.7224,-0.7223,-0.7211,-0.7211,-0.7116,-0.7219,-0.7219,-0.7219,-0.7219,0,-0.7,-0.6985,-0.7036,-0.7029,-0.7014,-0.7055,-0.7039,-0.7058,-0.7078,-0.7075,-0.7117,-0.7114,-0.7159,-0.7161,-0.7188,-0.7176,-0.7179,-0.7191,-0.7197,-0.7185,-0.7183,-0.7185,-0.7188,-0.7217,-0.7217,-0.7218,-0.7218,0,-0.691,-0.6944,-0.6934,-0.697,-0.6979,-0.6965,-0.6996,-0.699,-0.7015,-0.7011,-0.7013,-0.7051,-0.7055,-0.709,-0.7102,-0.712,-0.7097,-0.7113,-0.709,-0.7094,-0.7063,-0.7064,-0.6963,-0.6951,-0.7064,-0.7063,-0.7062,0,-0.686,-0.685,-0.6884,-0.6886,-0.6898,-0.69,-0.6905,-0.6946,-0.695,-0.6973,-0.6965,-0.6973,-0.698,-0.6985,-0.7013,-0.7023,-0.7037,-0.7002,-0.7039,-0.7026,-0.7033,-0.7032,-0.703,-0.6992,-0.6991,-0.6989,-0.6989,0,-0.6768,-0.6786,-0.6792,-0.6804,-0.6809,-0.682,-0.6834,-0.6833,-0.6878,-0.688,-0.6884,-0.6891,-0.6903,-0.6909,-0.6924,-0.694,-0.697,-0.6977,-0.6971,-0.6956,-0.6942,-0.6946,-0.7064,-0.6978,-0.6979,-0.698,-0.6981,-0.6981,-0.6695,-0.6688,-0.671,-0.6715,-0.6731,-0.6743,-0.6739,-0.6764,-0.6768,-0.6781,-0.6806,-0.6807,-0.6829,-0.6852,-0.6865,-0.6866,-0.6884,-0.6875,-0.6873,-0.6869,-0.6861,-0.6945,-0.6869,-0.6869,-0.687,-0.687,-0.687,0,-0.6603,-0.662,-0.6625,-0.6643,-0.6647,-0.6678,-0.6695,-0.6696,-0.6696,-0.6714,-0.6721,-0.6726,-0.6733,-0.6763,-0.6773,-0.6768,-0.6783,-0.6769,-0.6768,-0.677,-0.6846,-0.6849,-0.6757,-0.6757,-0.6757,-0.6757,-0.6757,-0.6757,-0.6555,-0.6543,-0.6563,-0.656,-0.6578,-0.6578,-0.6585,-0.6596,-0.6611,-0.6615,-0.662,-0.6641,-0.6663,-0.6676,-0.6683,-0.6692,-0.6692,-0.6673,-0.6686,-0.6755,-0.6765,-0.6776,-0.6779,-0.6674,-0.6674,-0.6611,-0.661,-0.661]},{"header":{"parameterUnit":"m.s-1","parameterCategory":1,"la1":30.2991,"la2":30.254,"lo1":-89.0895,"lo2":-89.0444,"dy":0.0017,"dx":0.0017,"nx":28,"ny":28,"refTime":"2025-08-06T21:00:00:Z","depth":0,"parameterNumber":3,"parameterNumberName":"V-component_of_WINDS"},"data":[0,0,0,0,0,0,0,0,0,0,0,0,0,0,0,0,0,0,0,0,0,0,0,0,0,0,0,0,0,0,0,0,0,0,0,0,0,0,0,0,0,0,0,0,0,0,0,0,0,0,0,0,0,0,0,0,0,0,1.4938,1.4937,0,1.48,1.4799,1.4797,1.471,1.471,1.4709,1.4709,1.4563,1.456,1.4557,0,0,0,0,0,0,0,0,0,0,0,0,0,1.5122,1.5119,1.4939,1.4937,1.4935,1.4801,1.4799,1.4797,1.471,1.471,1.4709,1.4709,1.4565,1.456,1.4556,0,0,0,0,0,0,0,0,0,0,0,0,0,1.5019,1.5118,1.4939,1.4876,1.4869,1.4801,1.4799,1.4796,1.4711,1.471,1.4709,1.4708,1.4566,1.4561,1.4556,1.4538,0,0,1.454,1.4538,0,0,0,0,0,0,0,0,1.5025,1.5012,1.4887,1.488,1.4872,1.4772,1.481,1.471,1.4711,1.4771,1.4709,1.4708,1.4633,1.4622,1.4598,1.4532,1.4525,1.454,1.4536,1.4534,1.4533,0,0,0,0,0,0,0,1.5032,1.5017,1.4884,1.4885,1.4876,1.4853,1.4837,1.479,1.4707,1.4765,1.4759,1.4744,1.4629,1.4603,1.4594,1.4523,1.454,1.4535,1.4532,1.453,1.4431,1.4432,0,0,0,0,0,0,1.505,1.5024,1.4888,1.488,1.4948,1.485,1.4833,1.4805,1.4708,1.4692,1.4745,1.474,1.4612,1.46,1.4588,1.4559,1.4534,1.4529,1.4527,1.4431,1.4432,1.4432,0,0,0,0,0,0,1.5054,1.5038,1.4894,1.495,1.493,1.4848,1.4817,1.4802,1.4777,1.4692,1.4676,1.4734,1.4611,1.4596,1.4551,1.4553,1.4527,1.4522,1.443,1.4431,1.4432,1.4502,0,0,0,0,0,0,1.506,1.5041,1.5035,1.4951,1.4927,1.4861,1.4817,1.48,1.4768,1.4761,1.4678,1.4663,1.4609,1.4559,1.4546,1.4545,1.4518,1.443,1.4431,1.4432,1.4499,1.4505,1.451,0,0,0,0,0,1.5067,1.506,1.5035,1.5019,1.4918,1.4861,1.4847,1.4787,1.4769,1.4761,1.4706,1.4666,1.4555,1.4555,1.454,1.4537,1.4429,1.4431,1.4432,1.4496,1.4503,1.4509,0,0,0,0,0,0,1.5145,1.5048,1.5019,1.4985,1.4932,1.4846,1.4835,1.4797,1.4747,1.4742,1.4668,1.465,1.4611,1.457,1.4572,1.4513,1.4487,1.4485,1.4542,1.4548,1.4553,1.4563,1.4514,0,0,0,0,0,1.5159,1.5122,1.5038,1.5016,1.4991,1.4918,1.4891,1.4848,1.479,1.4767,1.4709,1.4652,1.4604,1.4574,1.4525,1.4493,1.4471,1.4483,1.4489,1.4494,1.4492,1.4468,1.4471,1.4436,1.4436,1.4436,0,0,1.5186,1.5128,1.5109,1.503,1.4984,1.4945,1.4899,1.4861,1.4831,1.476,1.4714,1.467,1.4601,1.4562,1.4541,1.4526,1.4497,1.4495,1.45,1.4495,1.447,1.4473,1.4476,1.4436,1.4436,1.4436,0,0,1.5215,1.517,1.5144,1.5099,1.503,1.4981,1.4975,1.4895,1.4863,1.4816,1.4761,1.4723,1.4643,1.4596,1.4561,1.4571,1.453,1.4557,1.4584,1.4562,1.4565,1.4567,1.4567,1.4569,1.4556,1.4556,1.4556,0,1.5258,1.5199,1.5136,1.51,1.5066,1.5001,1.4974,1.4932,1.4851,1.4827,1.4812,1.4708,1.4658,1.4604,1.4607,1.4582,1.457,1.4565,1.457,1.4571,1.4572,1.4572,1.4573,1.456,1.4559,1.4559,1.4559,0,1.5252,1.5212,1.52,1.5123,1.5087,1.5056,1.4987,1.4958,1.4918,1.487,1.4821,1.4759,1.4695,1.4679,1.4641,1.462,1.4612,1.4585,1.4556,1.458,1.4578,1.4578,1.4565,1.4563,1.4562,1.4561,0,0,1.5327,1.5215,1.5211,1.5174,1.5093,1.506,1.5024,1.4963,1.4938,1.4884,1.485,1.4783,1.4756,1.4717,1.4672,1.4653,1.466,1.4627,1.4624,1.4633,1.463,1.465,1.4651,1.4634,1.4634,1.4634,1.4635,0,1.5342,1.5276,1.5218,1.5173,1.5133,1.507,1.5039,1.4984,1.4938,1.4896,1.4844,1.4797,1.4767,1.4742,1.4721,1.4664,1.4658,1.4664,1.4599,1.4598,1.4616,1.465,1.4671,1.4675,1.4634,1.4634,1.4634,0,1.5351,1.5299,1.525,1.517,1.5151,1.5124,1.5062,1.5023,1.4959,1.4926,1.4882,1.4835,1.4792,1.477,1.4708,1.4713,1.4683,1.4651,1.4649,1.4639,1.4616,1.4638,1.4676,1.4675,1.4632,1.4633,1.4633,0,1.5406,1.5325,1.5284,1.5255,1.5161,1.5143,1.5103,1.5038,1.5004,1.4949,1.4926,1.4867,1.4834,1.4788,1.4724,1.4715,1.4668,1.4641,1.4637,1.4639,1.4628,1.463,1.4659,1.4614,1.4614,1.4614,1.4614,0,1.5428,1.5399,1.5307,1.5282,1.5248,1.518,1.5147,1.5102,1.5044,1.5007,1.495,1.4916,1.4836,1.4791,1.4742,1.4696,1.4682,1.4653,1.4639,1.4657,1.466,1.4634,1.4632,1.4614,1.4614,1.4614,1.4614,0,1.5483,1.5421,1.5372,1.5287,1.5265,1.5243,1.517,1.5142,1.5092,1.5046,1.5031,1.4953,1.4898,1.4831,1.4754,1.472,1.4678,1.466,1.4701,1.4692,1.4691,1.4691,1.4703,1.47,1.466,1.4661,1.4661,0,1.55,1.5476,1.5389,1.5361,1.5323,1.5278,1.5243,1.5175,1.514,1.5064,1.5045,1.4986,1.4934,1.4848,1.4783,1.4723,1.4701,1.471,1.4692,1.4709,1.4698,1.4699,1.4695,1.4714,1.4715,1.4715,1.4716,0,1.5535,1.5505,1.5457,1.5398,1.5358,1.5308,1.5255,1.5235,1.5156,1.512,1.5063,1.5023,1.4945,1.4885,1.4817,1.4773,1.473,1.4722,1.4717,1.4734,1.4757,1.4742,1.4711,1.4722,1.4721,1.4721,1.472,1.472,1.5569,1.5544,1.5479,1.5427,1.538,1.5332,1.5301,1.5248,1.52,1.5131,1.5094,1.5037,1.497,1.4875,1.4832,1.4785,1.477,1.4765,1.4762,1.4762,1.4765,1.4767,1.4773,1.4773,1.4772,1.4772,1.4772,0,1.5598,1.5553,1.5506,1.5434,1.5393,1.5358,1.5298,1.5265,1.5216,1.5159,1.511,1.5043,1.4985,1.4915,1.4852,1.4828,1.4806,1.4813,1.4813,1.4803,1.4784,1.4793,1.4831,1.4831,1.4831,1.4831,1.4831,1.4831,1.5609,1.5564,1.5526,1.5457,1.5411,1.5357,1.5325,1.5279,1.5232,1.5161,1.5113,1.5069,1.5005,1.4936,1.4881,1.4861,1.4839,1.4852,1.4826,1.481,1.4804,1.48,1.4808,1.4848,1.4848,1.4849,1.4849,1.4849]}]]